KLUDKDTO

Guest
Details From KLUD - DECATUR MUNI
To KDTO - DENTON MUNI
Flight Number -
Tags generated
Created
Modified
Stats Distance 19 nm / 36 km
Max Altitude 0 ft / 0 m
Waypoints 2
Social Downloads 1
Likes 0
Share VATSIM

Download

Looking for another format? Having issues loading an existing format? Contact us
Advertisement - Login to hide

Notes

Basic altitude profile: - Ascent Rate: 700ft/min - Ascent Speed: 80kts - Cruise Altitude: 4000ft - Cruise Speed: 110kts - Descent Rate: 500ft/min - Descent Speed: 100kts Options: - Use NATs: yes - Use PACOTS: yes - Use low airways: yes - Use high airways: yes

Route

KLUD KDTO

ID Type Via Altitude Latitude Longitude Leg Dist Tot Dist Heading (true) Name
O KLUD APT - 0 ft / 0 m 33.25465˚ -97.58055˚ - 0 nm - DECATUR MUNI
O KDTO APT - 0 ft / 0 m 33.20072˚ -97.19798˚ 19 nm 19 nm 99° / 100° DENTON MUNI

Altitude Profile

Advertisement - Login to hide

KLUD

Details ICAO KLUD
Name DECATUR MUNI
Region United States
Timezone America/Chicago (UTC-5.0)
Stats Elevation 1,047 ft / 319 m (AMSL)
Location 33.254650° -97.580553°
Runways 1
Magnetic Variation 3.711° E

METAR

KLUD 272355Z AUTO 09008KT 10SM CLR 33/19 A2979 RMK AO2 T03340191 10352 20324

Decode

TAF

Not found

Departure Runways

ID Width Length Bearing (true) Bearing (mag) Surface Threshold Offset Overrun Length
17 60 ft / 18 m 3,910 ft / 1,192 m 172.47° 168.76° Asphalt 0 ft / 0 m 0 ft / 0 m
35 60 ft / 18 m 3,910 ft / 1,192 m 352.48° 348.77° Asphalt 500 ft / 152 m 0 ft / 0 m

KDTO

Details ICAO KDTO
Name DENTON MUNI
Region United States
Timezone America/Chicago (UTC-5.0)
Stats Elevation 642 ft / 196 m (AMSL)
Location 33.200722° -97.197976°
Runways 1
Magnetic Variation 3.481° E

METAR

KDTO 272353Z 09009KT 10SM CLR 34/18 A2977 RMK AO2 SLP070 T03390183 10356 20328 56009

Decode

TAF

Not found

Destination Runways

ID Width Length Bearing (true) Bearing (mag) Surface Threshold Offset Overrun Length
17 150 ft / 46 m 6,016 ft / 1,834 m 181.06° 177.58° Asphalt 0 ft / 0 m 0 ft / 0 m
35 150 ft / 46 m 6,016 ft / 1,834 m 1.06° 357.58° Asphalt 0 ft / 0 m 0 ft / 0 m

Approach Navaids

Runway Type Ident Frequency Range Bearing (true) Bearing (mag) Slope Elevation
17 Localiser IDTO 109.10 MHz 18 nm / 33 km 181.06° 177.58° - 642 ft / 196 m (AMSL)
17 Glidescope IDTO 109.10 MHz 10 nm / 19 km 181.06° 177.58° 3.00° 642 ft / 196 m (AMSL)

Popular Alternatives